• In Deutschland
  • Länderverzeichnis
  • Für 7 Tage
  • Wassertemperatur
  • Satellitenkarten
  • Wetterkarte
  • Widgets
  • user-avatar
    Anmelden

    Stündliche Wetter Punta Gorda

    Heute, 21 Juli, Freitag

    Zeit Temperatur Niederschläge Wind Luftdruck Luftfeuchtigkeit
    00:00 +26°C° 1,3 mm 2 m/S 761 mmHg 96%
    01:00 +26°C° 1 mm 2 m/S 761 mmHg 96%
    02:00 +26°C° 1 mm 2 m/S 760 mmHg 96%
    03:00 +26°C° 1 mm 1 m/S 760 mmHg 97%
    04:00 +26°C° 0,7 mm 1 m/S 760 mmHg 96%
    05:00 +26°C° 0,7 mm 1 m/S 760 mmHg 96%
    06:00 +26°C° 0,7 mm 1 m/S 760 mmHg 96%
    07:00 +27°C° 0,8 mm 1 m/S 760 mmHg 90%
    08:00 +29°C° 0,8 mm 1 m/S 761 mmHg 85%
    09:00 +30°C° 0,8 mm 1 m/S 761 mmHg 79%
    10:00 +31°C° 0,3 mm 2 m/S 761 mmHg 76%
    11:00 +31°C° 0,3 mm 2 m/S 761 mmHg 72%
    12:00 +33°C° 0,3 mm 3 m/S 760 mmHg 69%
    13:00 +34°C° 0,1 mm 3 m/S 760 mmHg 65%
    14:00 +34°C° 0,1 mm 4 m/S 759 mmHg 61%
    15:00 +35°C° 0,1 mm 4 m/S 759 mmHg 58%
    16:00 +33°C° 0,6 mm 4 m/S 759 mmHg 63%
    17:00 +32°C° 0,6 mm 4 m/S 759 mmHg 68%
    18:00 +30°C° 0,6 mm 4 m/S 759 mmHg 73%
    19:00 +29°C° 1,1 mm 4 m/S 760 mmHg 80%
    20:00 +28°C° 1,1 mm 4 m/S 760 mmHg 87%
    21:00 +27°C° 1,1 mm 3 m/S 761 mmHg 93%
    22:00 +27°C° 1 mm 4 m/S 761 mmHg 95%
    23:00 +27°C° 1 mm 4 m/S 761 mmHg 96%

    Morgen, 22 Juli, Samstag

    Zeit Temperatur Niederschläge Wind Luftdruck Luftfeuchtigkeit
    00:00 +27°C° 1 mm 4 m/S 761 mmHg 97%
    01:00 +27°C° 0,6 mm 3 m/S 760 mmHg 96%
    02:00 +27°C° 0,6 mm 3 m/S 760 mmHg 96%
    03:00 +27°C° 0,6 mm 3 m/S 759 mmHg 95%
    04:00 +27°C° 0 mm 2 m/S 759 mmHg 95%
    05:00 +27°C° 0 mm 2 m/S 760 mmHg 95%
    06:00 +27°C° 0 mm 1 m/S 760 mmHg 95%
    07:00 +28°C° 0,1 mm 2 m/S 760 mmHg 86%
    08:00 +30°C° 0,1 mm 2 m/S 760 mmHg 78%
    09:00 +31°C° 0,1 mm 2 m/S 761 mmHg 70%
    10:00 +32°C° 0 mm 2 m/S 760 mmHg 64%
    11:00 +35°C° 0 mm 3 m/S 760 mmHg 57%
    12:00 +36°C° 0 mm 3 m/S 760 mmHg 50%
    13:00 +36°C° 0 mm 4 m/S 759 mmHg 50%
    14:00 +36°C° 0 mm 4 m/S 759 mmHg 50%
    15:00 +36°C° 0 mm 4 m/S 758 mmHg 50%
    16:00 +34°C° 0,4 mm 4 m/S 758 mmHg 55%
    17:00 +33°C° 0,4 mm 4 m/S 758 mmHg 61%
    18:00 +32°C° 0,4 mm 4 m/S 759 mmHg 67%
    19:00 +29°C° 0,4 mm 3 m/S 759 mmHg 74%
    20:00 +28°C° 0,4 mm 3 m/S 760 mmHg 81%
    21:00 +27°C° 0,4 mm 2 m/S 761 mmHg 88%
    22:00 +27°C° 0,4 mm 2 m/S 760 mmHg 90%
    23:00 +27°C° 0,4 mm 2 m/S 760 mmHg 93%

    übermorgen, 23 Juli, Sonntag

    Zeit Temperatur Niederschläge Wind Luftdruck Luftfeuchtigkeit
    00:00 +26°C° 0,4 mm 2 m/S 760 mmHg 95%
    01:00 +26°C° 0,6 mm 1 m/S 760 mmHg 95%
    02:00 +26°C° 0,6 mm 1 m/S 759 mmHg 96%
    03:00 +26°C° 0,6 mm 1 m/S 759 mmHg 96%
    04:00 +26°C° 0,4 mm 1 m/S 759 mmHg 96%
    05:00 +26°C° 0,4 mm 1 m/S 759 mmHg 96%
    06:00 +26°C° 0,4 mm 1 m/S 759 mmHg 96%
    07:00 +28°C° 0,2 mm 1 m/S 760 mmHg 89%
    08:00 +29°C° 0,2 mm 1 m/S 760 mmHg 81%
    09:00 +31°C° 0,2 mm 1 m/S 760 mmHg 74%
    10:00 +32°C° 0,1 mm 1 m/S 760 mmHg 67%
    11:00 +35°C° 0,1 mm 2 m/S 759 mmHg 60%
    12:00 +36°C° 0,1 mm 2 m/S 759 mmHg 54%
    13:00 +36°C° 0,2 mm 3 m/S 759 mmHg 55%
    14:00 +36°C° 0,2 mm 3 m/S 758 mmHg 56%
    15:00 +35°C° 0,2 mm 4 m/S 757 mmHg 58%
    16:00 +34°C° 0,4 mm 4 m/S 758 mmHg 63%
    17:00 +33°C° 0,4 mm 4 m/S 758 mmHg 67%
    18:00 +32°C° 0,4 mm 4 m/S 758 mmHg 72%
    19:00 +30°C° 1,2 mm 4 m/S 759 mmHg 77%
    20:00 +29°C° 1,2 mm 3 m/S 759 mmHg 82%
    21:00 +28°C° 1,2 mm 3 m/S 760 mmHg 88%
    22:00 +28°C° 1,4 mm 3 m/S 760 mmHg 89%
    23:00 +27°C° 1,4 mm 3 m/S 760 mmHg 91%

    24 Juli, Montag

    Zeit Temperatur Niederschläge Wind Luftdruck Luftfeuchtigkeit
    00:00 +27°C° 1,4 mm 3 m/S 760 mmHg 92%
    01:00 +27°C° 1 mm 2 m/S 759 mmHg 93%
    02:00 +27°C° 1 mm 2 m/S 759 mmHg 94%
    03:00 +27°C° 1 mm 1 m/S 758 mmHg 95%
    04:00 +27°C° 0,1 mm 1 m/S 759 mmHg 95%
    05:00 +27°C° 0,1 mm 1 m/S 759 mmHg 95%
    06:00 +25°C° 0,1 mm 0 m/S 759 mmHg 95%
    07:00 +28°C° 0 mm 1 m/S 760 mmHg 87%
    08:00 +30°C° 0 mm 1 m/S 760 mmHg 80%
    09:00 +31°C° 0 mm 1 m/S 760 mmHg 72%
    10:00 +32°C° 0 mm 1 m/S 760 mmHg 66%
    11:00 +35°C° 0 mm 2 m/S 759 mmHg 60%
    12:00 +36°C° 0 mm 2 m/S 759 mmHg 54%
    13:00 +36°C° 0 mm 3 m/S 758 mmHg 53%
    14:00 +36°C° 0 mm 3 m/S 758 mmHg 53%
    15:00 +36°C° 0 mm 4 m/S 757 mmHg 53%
    16:00 +35°C° 0,3 mm 4 m/S 758 mmHg 59%
    17:00 +33°C° 0,3 mm 4 m/S 758 mmHg 65%
    18:00 +32°C° 0,3 mm 4 m/S 758 mmHg 71%
    19:00 +30°C° 0,3 mm 4 m/S 759 mmHg 77%
    20:00 +29°C° 0,3 mm 4 m/S 759 mmHg 83%
    21:00 +28°C° 0,3 mm 3 m/S 760 mmHg 89%
    22:00 +28°C° 1 mm 3 m/S 760 mmHg 90%
    23:00 +28°C° 1 mm 3 m/S 760 mmHg 91%

    25 Juli, Dienstag

    Zeit Temperatur Niederschläge Wind Luftdruck Luftfeuchtigkeit
    00:00 +28°C° 1 mm 3 m/S 760 mmHg 92%
    01:00 +28°C° 0,6 mm 3 m/S 759 mmHg 92%
    02:00 +28°C° 0,6 mm 3 m/S 759 mmHg 92%
    03:00 +28°C° 0,6 mm 2 m/S 759 mmHg 92%
    04:00 +28°C° 0,1 mm 2 m/S 759 mmHg 93%
    05:00 +28°C° 0,1 mm 2 m/S 760 mmHg 93%
    06:00 +27°C° 0,1 mm 1 m/S 760 mmHg 94%
    07:00 +29°C° 0,1 mm 1 m/S 760 mmHg 86%
    08:00 +31°C° 0,1 mm 1 m/S 760 mmHg 79%
    09:00 +32°C° 0,1 mm 1 m/S 761 mmHg 71%
    10:00 +34°C° 0 mm 2 m/S 760 mmHg 64%
    11:00 +35°C° 0 mm 3 m/S 760 mmHg 58%
    12:00 +37°C° 0 mm 3 m/S 760 mmHg 51%
    13:00 +36°C° 0 mm 4 m/S 759 mmHg 51%
    14:00 +36°C° 0 mm 4 m/S 759 mmHg 51%
    15:00 +36°C° 0 mm 5 m/S 758 mmHg 51%
    16:00 +35°C° 0 mm 4 m/S 758 mmHg 58%
    17:00 +33°C° 0 mm 4 m/S 759 mmHg 64%
    18:00 +32°C° 0 mm 4 m/S 759 mmHg 71%
    19:00 +30°C° 0,5 mm 4 m/S 760 mmHg 77%
    20:00 +29°C° 0,5 mm 3 m/S 760 mmHg 84%
    21:00 +28°C° 0,5 mm 3 m/S 761 mmHg 90%
    22:00 +27°C° 0,5 mm 3 m/S 761 mmHg 92%
    23:00 +27°C° 0,5 mm 2 m/S 760 mmHg 94%

    26 Juli, Mittwoch

    Zeit Temperatur Niederschläge Wind Luftdruck Luftfeuchtigkeit
    00:00 +27°C° 0,5 mm 2 m/S 760 mmHg 96%
    01:00 +27°C° 0,5 mm 2 m/S 760 mmHg 96%
    02:00 +27°C° 0,5 mm 2 m/S 760 mmHg 96%
    03:00 +27°C° 0,5 mm 2 m/S 759 mmHg 97%
    04:00 +27°C° 0,2 mm 2 m/S 759 mmHg 97%
    05:00 +27°C° 0,2 mm 2 m/S 760 mmHg 97%
    06:00 +27°C° 0,2 mm 2 m/S 760 mmHg 97%
    07:00 +28°C° 0,3 mm 2 m/S 760 mmHg 92%
    08:00 +29°C° 0,3 mm 2 m/S 760 mmHg 87%
    09:00 +30°C° 0,3 mm 2 m/S 760 mmHg 82%
    10:00 +32°C° 0,2 mm 2 m/S 760 mmHg 73%
    11:00 +34°C° 0,2 mm 3 m/S 760 mmHg 65%
    12:00 +36°C° 0,2 mm 3 m/S 759 mmHg 57%
    13:00 +36°C° 0,1 mm 4 m/S 759 mmHg 56%
    14:00 +36°C° 0,1 mm 4 m/S 758 mmHg 55%
    15:00 +36°C° 0,1 mm 4 m/S 758 mmHg 53%
    16:00 +34°C° 0,3 mm 4 m/S 758 mmHg 60%
    17:00 +33°C° 0,3 mm 4 m/S 758 mmHg 66%
    18:00 +32°C° 0,3 mm 4 m/S 758 mmHg 72%
    19:00 +30°C° 0,9 mm 4 m/S 759 mmHg 79%
    20:00 +28°C° 0,9 mm 3 m/S 759 mmHg 86%
    21:00 +27°C° 0,9 mm 3 m/S 760 mmHg 93%
    22:00 +27°C° 0,8 mm 3 m/S 760 mmHg 94%
    23:00 +27°C° 0,8 mm 3 m/S 760 mmHg 95%
    Mehr zeigen